Regional Weather Roundup
Issued by NWS

Home | Current Version | Previous Version | Graphics & Text | Print | Product List | Glossary On
Versions: 1 2 3 4 5 6 7 8 9 10 11 12 13 14 15 16 17 18 19 20 21 22 23 24 25 26 27 28 29 30 31 32 33 34 35 36 37 38 39 40 41 42 43 44 45 46 47 48 49 50
000
ASUS43 KLOT 270109
RWRIL

ILLINOIS REGIONAL WEATHER ROUNDUP
NATIONAL WEATHER SERVICE CHICAGO/ROMEOVILLE IL
800 PM CDT WED JUL 26 2017

NOTE: "FAIR" INDICATES FEW OR NO CLOUDS BELOW 12,000 FEET WITH NO
SIGNIFICANT WEATHER AND/OR OBSTRUCTIONS TO VISIBILITY.

* THESE STATIONS ARE NOT UNDER NWS QUALITY CONTROL. THEY ALSO MAY NOT
  REPORT WEATHER SUCH AS PRECIPITATION OR FOG.

ILZ001-002-007-009-015-016-024-270200-
NORTHWEST ILLINOIS

CITY           SKY/WX    TMP DP  RH WIND       PRES   REMARKS
MOLINE         CLOUDY    74  69  85 CALM      29.96R
STERLING*      HVY RAIN  75  73  93 W18       29.97R FOG
SAVANNA*       RAIN      72  71  99 CALM      29.96F
$$

ILZ003-004-008-010-011-017-018-270200-
NORTH CENTRAL ILLINOIS

CITY           SKY/WX    TMP DP  RH WIND       PRES   REMARKS
ROCKFORD       CLOUDY    80  74  81 E6        29.97S HX  85
FREEPORT*      CLOUDY    77  74  93 SE3       29.97S
ROCHELLE*      PTCLDY    76  74  93 CALM      29.96S
DE KALB*       PTCLDY    77  74  90 E6        29.98F
PERU*          CLOUDY    80  74  82 SE7       29.96R HX  83
$$

ILZ005-006-012>014-019>023-270200-
NORTHEAST ILLINOIS

CITY           SKY/WX    TMP DP  RH WIND       PRES   REMARKS
CHICAGO-OHARE  CLOUDY    80  70  71 S9        29.97R HX  83
CHICAGO-MIDWAY CLOUDY    82  70  66 S6        29.98R HX  86
AURORA         CLOUDY    79  73  82 E6        29.97S HX  82
LANSING*       MOCLDY    78  69  73 S5        29.98R HX  81
JOLIET*        CLOUDY    80  75  84 SE6       29.97S HX  85
WAUKEGAN       CLOUDY    75  71  87 S5        29.96F
DUPAGE AIRPORT CLOUDY    78  73  84 SE6       29.97R HX  81
KANKAKEE*      CLOUDY    79  73  83 CALM      29.99R HX  82
WHEELING       CLOUDY    80  72  76 S7        29.98R HX  84
MORRIS*        CLOUDY    77  74  90 E6        29.95S
ROMEOVILLE*    MOCLDY    77  70  79 SE6       29.98S
NORTHERLY ISL    N/A     77  69  76 CALM        N/A
$$

LMZ740>746-270200-
SOUTHERN LAKE MICHIGAN

STATION/POSITION SKY/WX   TEMP    WIND        PRES    VSBY  WAVE
                          AIR SEA DIR/SP/G                  HT/PER
                          (F)     (DEG/KT/KT) (MB)    (MI)  (FT/S)
SOUTHERN BUOY              73 71  110/  6/  6 1015.5          1/ 4
WILMETTE HARBOR            74 72  140/  8/  8   N/A           1/ 2
HARRISON CRIB              81     180/ 11/ 11   N/A
BURNHAM HARBOR             76                   N/A
CALUMET HARBOR             81     110/  5/  7 1014.2F
BURNS HARBOR               80     180/  8/ 11 1015.6R
MICHIGAN CITY              79     130/  6/  7   N/A
MICHIGAN CITY 6N           77 75  160/  6/  6   N/A           0
ST. JOSEPH                 77 76  150/  4/  6 1015.1          0
$$

ILZ025>027-034>036-040-047-049-050-058-095>099-270200-
WEST-CENTRAL ILLINOIS

CITY           SKY/WX    TMP DP  RH WIND       PRES   REMARKS
QUINCY         LGT RAIN  77  72  84 W6        29.97R
GALESBURG*     CLOUDY    72  71  98 CALM      29.98S
MACOMB*        CLOUDY    74  73  94 S3        29.98F
JACKSONVILLE*  LGT RAIN  83  78  84 CALM      29.95S HX  92
PITTSFIELD*    CLOUDY    84  77  81 CALM      29.98R HX  93
$$

ILZ028>032-037-038-041>044-048-051>054-059>061-270200-
CENTRAL ILLINOIS

CITY           SKY/WX    TMP DP  RH WIND       PRES   REMARKS
PONTIAC        MOCLDY    78  78  99 SE6       29.96S HX  81
BLOOMINGTON    LGT RAIN  81  74  79 SE6       29.97S HX  86
DECATUR        CLOUDY    84  75  74 S5        29.96S HX  92
PEORIA         LGT RAIN  73  71  93 W13G29    29.98R FOG
LACON*         LGT RAIN  80  76  89 CALM      29.95R HX  85
LINCOLN*       LGT RAIN  83  80  91 CALM      29.95R HX  95
SPRINGFIELD    LGT RAIN  84  81  90 CALM      29.96R FOG     HX  99
TAYLORVILLE    MOCLDY    82  77  84 S3        29.96R HX  91
$$

ILZ033-039-045-046-055>057-062-063-270200-
EAST-CENTRAL ILLINOIS

CITY           SKY/WX    TMP DP  RH WIND       PRES   REMARKS
CHAMPAIGN      CLOUDY    81  76  84 SE5       29.97F HX  87
RANTOUL*       CLOUDY    83  78  87 SE5       29.97S HX  93
MATTOON        PTCLDY    82  79  90 SE6       29.96F HX  92
PARIS*         CLOUDY    80  78  93 CALM      29.99S HX  87
$$

ILZ079-100>102-270200-
SOUTHWEST ILLINOIS

CITY           SKY/WX    TMP DP  RH WIND       PRES   REMARKS
ALTON          CLOUDY    81  72  74 SE6       29.97R HX  84
BELLEVILLE     CLOUDY    78  76  91 CALM      29.98F HX  81
CAHOKIA*       CLOUDY    82  72  71 S3        29.96R HX  87
SPARTA*        MOCLDY    80  74  82 CALM      30.00R HX  84
$$

ILZ064>066-069>071-074>076-080>082-084>086-088>090-092>094-270200-
SOUTH-CENTRAL ILLINOIS

CITY           SKY/WX    TMP DP  RH WIND       PRES   REMARKS
CARBONDALE     CLOUDY    82  80  94 CALM      29.99R HX  94
CAIRO*         MOCLDY    85  76  75 S3        29.99S HX  94
EFFINGHAM*     CLOUDY    83  75  77 SE5       29.99S HX  89
MARION         CLOUDY    84  82  94 CALM      30.00R HX 101
MT. VERNON     MOCLDY    79  76  90 CALM      29.99R HX  83
CENTRALIA*     MOCLDY    81  72  73 SW14G20   29.99R THUNDER HX  86
SALEM*         PTCLDY    83  74  72 CALM      29.98S HX  90
METROPOLIS*    CLOUDY    86  77  75 CALM      30.00S HX  96
$$

ILZ067-068-072-073-078-083-087-091-270200-
SOUTHEAST ILLINOIS

CITY           SKY/WX    TMP DP  RH WIND       PRES   REMARKS
LAWRENCEVILLE  CLOUDY    80  73  79 CALM      29.98S HX  84
FLORA*         CLOUDY    80  75  85 SW5       29.99S HX  85
FAIRFIELD*     CLOUDY    79  78  97 CALM      29.97S HX  84
HARRISBURG*    CLOUDY    81  77  89 E3        29.99S HX  88
ROBINSON*      CLOUDY    77  73  88 CALM      29.98S
CARMI*         CLOUDY    76  75  96 CALM      29.99R
$$

ABBREVIATIONS USED IN REMARKS
   TC - TEMPERATURE IN CELSIUS
  WCI - WIND CHILL INDEX
   HX - HEAT INDEX
  VSB - VISIBILITY
$$





USA.gov is the U.S. government's official web portal to all federal, state and local government web resources and services.